Temp
77 78 80 77 80 60 69 71 63 68 78 73 64 62 63 62 59 57 67 65 71 78 79 83 84 82 83 86 87 88 87 88 86 85 87 87 87 87 87 87 87 85 87 86 86 86 87 87 86 85 84 84 84 83 83 82 82 83 82 82 82 82 82
77 83 81 80 80 80 71 63 70 78 81 77 66 57 59 58 55 58 63 62 65 67 64 79 82 81 83 83 84 88 87 87 85 86 86 86 87 88 87 87 87 87 87 87 87 88 88 88 88 86 84 85 85 85 84 83 82 81 82 82 82 82 82
75 78 80 75 80 82 75 72 82 69 59 57 64 61 51 52 52 56 60 64 66 69 68 76 75 78 81 82 83 85 86 87 87 87 87 87 88 88 87 87 87 87 87 87 87 88 90 89 87 87 86 87 87 86 86 86 84 84 84 85 84 83 83
74 75 75 62 69 76 76 80 74 80 73 65 58 61 62 62 55 54 57 60 60 71 74 79 79 80 81 84 82 83 87 88 88 88 89 87 86 86 87 88 88 88 89 90 90 89 90 90 89 89 90 90 89 88 86 86 87 85 84 84 83 82 83
74 64 71 68 70 67 69 70 69 70 71 75 73 68 65 60 57 56 56 56 64 72 80 81 81 83 84 84 83 82 84 87 90 90 89 88 86 86 87 88 89 89 89 91 91 91 91 92 91 91 92 90 90 90 88 88 85 85 85 85 84 83 84
65 69 75 77 76 76 73 71 68 70 67 62 58 56 69 67 61 53 56 55 67 77 80 82 84 86 87 86 85 84 86 88 88 89 90 89 87 87 88 89 91 91 90 90 92 92 91 92 92 92 92 91 91 90 90 89 89 88 87 86 84 83 84
68 72 76 81 82 81 78 76 72 76 74 71 63 53 59 65 67 68 65 59 63 80 78 80 85 87 88 89 88 86 88 88 90 89 91 90 88 88 90 90 92 92 90 90 90 89 88 89 89 91 91 91 90 90 90 89 89 88 89 88 87 84 83
71 75 76 77 76 75 74 76 78 75 71 72 69 68 67 63 64 60 62 56 65 78 77 81 85 84 87 85 84 84 88 89 89 88 89 88 87 87 89 90 92 90 91 89 87 87 86 86 87 89 89 89 90 90 91 91 90 89 89 89 88 85 84
60 66 72 74 73 73 71 72 75 76 77 76 76 72 64 63 65 66 62 54 65 77 74 75 77 80 83 86 86 83 83 85 87 87 86 86 85 85 87 87 88 88 90 87 84 85 84 85 88 88 88 88 90 89 91 91 91 91 90 89 88 87 86
46 46 49 54 62 66 67 70 73 74 74 72 70 63 61 56 63 65 63 63 71 77 75 77 78 79 79 83 85 85 83 81 84 85 85 83 83 82 84 85 86 86 85 85 84 84 84 86 88 86 86 88 90 89 89 92 91 90 90 90 89 87 87
54 52 51 55 57 60 61 65 66 70 74 76 73 70 62 59 62 62 65 67 70 74 79 79 81 79 81 84 86 84 82 84 82 80 80 81 81 81 83 83 85 84 83 83 84 83 86 88 88 88 88 88 89 87 88 91 91 90 89 88 87 87 87
53 56 56 60 59 55 59 59 63 67 68 72 70 66 63 66 63 57 67 68 67 72 76 78 80 82 79 80 80 82 82 81 83 83 79 79 81 82 82 82 82 82 82 83 83 83 85 86 87 88 89 89 88 87 88 89 91 91 90 88 86 86 86
56 58 59 61 59 58 59 60 61 62 65 66 66 67 70 68 64 61 67 66 65 72 79 82 82 82 83 85 86 87 86 84 83 80 82 84 86 85 83 80 81 82 82 82 83 84 84 86 86 87 88 88 87 87 88 88 91 90 89 87 86 86 84
55 58 60 61 58 58 59 59 61 63 64 64 65 67 72 71 67 71 71 66 70 77 80 83 85 83 87 88 83 81 82 87 84 83 81 86 88 88 86 84 83 81 82 83 83 84 83 84 85 87 87 86 88 88 88 89 88 90 88 86 85 85 84
53 57 60 60 59 58 56 60 62 63 64 65 66 67 69 70 70 73 74 67 67 79 82 84 87 82 79 78 81 86 84 84 86 84 86 86 87 88 87 85 83 82 82 83 83 83 83 83 84 85 86 86 87 91 89 90 87 89 89 85 84 84 83
50 56 57 58 59 59 59 59 62 63 64 62 66 64 69 67 65 68 69 66 67 76 79 81 79 78 77 80 81 83 83 86 82 81 85 85 84 84 84 83 82 81 82 82 83 83 85 85 85 85 84 87 87 88 88 88 90 91 89 87 85 83 84
48 55 57 56 56 58 56 59 65 67 68 68 70 72 73 73 74 68 64 67 76 78 79 79 81 83 82 81 82 82 82 79 82 83 85 87 86 83 80 80 80 82 84 85 83 85 87 86 86 87 87 88 85 86 86 87 88 88 86 86 85 84 84
48 53 55 56 52 45 51 63 63 65 66 68 67 68 71 74 75 73 77 77 79 80 79 79 80 83 82 83 83 84 83 82 81 83 83 84 84 81 81 80 81 81 82 84 86 86 85 87 90 88 88 88 87 88 87 87 86 85 85 85 84 84 84
46 52 53 48 42 48 62 66 68 66 66 65 65 70 75 76 77 77 76 78 79 80 81 81 81 83 85 81 82 82 82 79 82 82 84 79 78 78 78 77 80 79 79 80 82 83 86 89 89 88 88 89 89 87 87 86 85 84 85 84 84 84 84
51 48 48 38 45 57 63 68 65 66 66 65 65 67 71 74 77 77 76 78 80 80 80 82 83 81 78 77 74 75 77 77 78 80 81 80 79 79 78 76 75 75 78 79 82 84 87 88 90 89 89 90 90 87 87 86 85 84 84 84 84 84 84
43 47 48 47 57 56 61 62 61 62 60 59 59 58 65 68 69 70 73 77 80 82 82 81 80 78 79 77 77 77 78 75 76 77 77 77 76 75 76 77 77 77 77 77 80 83 85 87 89 89 90 90 89 87 86 86 84 84 84 83 84 83 84
51 46 44 47 47 43 53 59 63 65 65 64 62 59 59 66 66 67 65 67 73 78 81 78 76 76 75 74 78 79 78 76 75 75 75 76 75 76 76 75 77 78 78 79 80 83 85 85 87 87 88 88 86 84 84 84 84 83 84 84 84 84 84
49 46 43 43 41 49 60 60 62 65 66 65 65 59 58 63 63 65 65 66 68 69 73 75 74 74 72 75 80 79 77 76 77 75 75 76 76 76 75 74 76 77 78 79 83 83 84 83 84 85 85 86 86 84 84 84 84 85 84 84 85 85 85
47 47 44 42 50 50 59 61 63 67 68 65 63 52 57 59 63 64 65 64 66 67 68 71 73 74 73 77 83 79 78 76 74 73 72 72 73 75 75 75 76 76 76 78 78 78 78 77 80 84 85 86 85 84 83 86 85 84 84 85 86 86 87
45 44 46 51 53 60 65 64 65 68 66 63 55 50 58 61 63 65 64 64 66 67 67 70 69 76 76 77 76 76 75 73 71 71 70 70 70 71 72 72 73 76 76 75 74 73 74 76 80 83 84 85 84 84 83 83 83 85 86 86 85 85 85
42 46 44 46 54 63 68 67 66 68 64 52 54 61 59 62 63 64 63 61 64 66 67 69 71 72 71 74 75 74 73 71 70 70 70 70 71 72 71 70 72 74 75 73 73 74 75 78 81 83 83 83 82 83 82 82 84 86 86 86 85 85 84
47 46 43 43 36 55 67 65 63 66 58 60 61 61 64 64 64 63 62 62 63 65 67 72 72 70 72 72 72 71 69 69 68 68 68 68 69 69 70 71 72 74 72 71 71 72 74 76 79 82 84 81 81 81 81 80 82 85 85 86 85 85 84
41 42 39 41 53 60 65 66 60 64 65 64 63 62 63 64 64 62 61 62 62 63 66 69 69 69 68 66 66 67 68 69 68 68 68 69 69 70 71 71 72 73 71 71 70 71 73 73 74 77 80 79 80 79 75 76 78 81 84 85 84 84 83
45 45 49 56 57 60 65 66 66 66 64 65 64 63 63 62 62 62 60 60 62 63 64 66 66 64 65 65 67 67 68 69 69 68 69 69 69 70 70 71 71 72 72 69 69 69 71 71 72 73 76 76 74 72 72 75 76 78 80 82 83 83 83
51 55 55 57 58 60 62 67 67 66 64 66 66 64 63 61 61 61 59 61 61 62 64 64 64 64 64 65 67 67 68 68 68 69 69 69 70 72 72 71 71 71 70 70 69 68 69 71 71 71 72 74 71 71 74 75 75 76 80 80 81 82 83
43 38 56 57 57 60 61 63 65 66 67 65 66 63 62 62 62 62 63 62 61 61 63 64 64 65 66 65 65 66 66 67 67 68 68 68 69 69 69 70 70 71 71 70 69 69 68 70 72 72 71 71 71 73 74 77 77 77 78 78 79 80 81
39 41 51 53 53 56 61 62 62 62 63 64 64 64 64 64 64 64 64 64 62 63 62 63 63 64 65 64 64 65 65 66 68 68 69 68 68 70 71 71 71 70 70 69 69 69 69 70 71 72 72 72 73 73 74 75 76 76 76 76 77 77 78
45 49 50 51 51 52 56 61 63 64 64 63 62 62 62 63 63 63 64 65 64 64 62 63 63 63 64 65 65 65 66 66 67 67 67 68 69 70 69 70 70 69 68 69 69 68 69 71 71 71 71 73 73 73 73 74 75 75 74 75 76 76 75
37 40 47 53 46 47 54 59 61 62 64 64 62 62 61 61 61 62 62 63 65 65 64 63 63 62 63 65 65 65 65 65 66 67 68 69 70 70 70 71 70 70 70 69 69 68 69 71 71 71 71 72 73 74 74 74 74 73 73 73 73 73 74
40 49 53 55 54 51 54 57 62 63 64 63 60 59 60 61 62 61 61 61 62 63 62 63 61 60 60 62 65 65 65 65 66 66 67 69 69 69 70 70 69 69 70 70 70 70 70 71 71 72 72 73 74 74 74 75 74 74 73 71 71 71 72
51 54 54 55 51 48 51 57 61 62 64 62 60 61 62 62 61 61 61 61 60 60 61 61 61 61 62 63 65 64 65 66 66 66 66 67 68 69 70 69 69 69 69 70 70 69 71 71 71 71 72 73 74 75 75 74 74 74 74 72 70 70 71
47 55 55 55 53 53 56 56 59 63 64 63 60 60 60 61 62 63 61 61 62 61 60 59 60 62 65 65 65 64 63 64 66 67 67 66 67 67 68 68 68 68 68 69 69 70 70 70 70 71 71 72 74 75 74 74 75 73 73 73 71 71 71
MSLP
1003.00 1003.04 1002.88 1004.04 1003.80 1009.88 1007.16 1007.44 1009.36 1007.28 1005.32 1007.44 1009.64 1010.60 1010.44 1010.84 1011.56 1011.32 1008.44 1008.40 1005.84 1003.72 1003.00 1002.08 1001.68 1002.36 1002.08 1001.20 1001.00 1000.88 1000.88 1000.80 1001.28 1001.72 1001.64 1001.60 1001.52 1001.64 1001.88 1002.04 1002.16 1002.40 1002.76 1003.24 1003.44 1003.68 1004.00 1004.44 1004.92 1005.28 1005.40 1005.56 1006.04 1006.60 1007.16 1007.76 1008.12 1008.44 1008.84 1009.12 1009.44 1009.72 1010.04
1002.56 1001.28 1002.00 1003.04 1003.04 1003.48 1006.64 1008.88 1006.56 1005.08 1004.60 1005.88 1008.96 1011.68 1010.96 1011.40 1012.20 1010.12 1009.36 1008.84 1007.48 1007.24 1007.40 1002.12 1001.88 1002.32 1001.96 1001.76 1001.40 1000.72 1000.36 1000.40 1001.28 1001.20 1001.08 1000.88 1000.80 1000.72 1000.64 1000.84 1001.08 1001.48 1002.00 1002.40 1002.68 1002.92 1003.12 1003.36 1003.68 1004.12 1004.48 1004.72 1005.20 1005.76 1006.32 1007.04 1007.56 1008.04 1008.16 1008.48 1008.92 1009.24 1009.64
1002.60 1002.32 1002.60 1004.36 1003.20 1002.48 1004.52 1005.24 1002.92 1007.04 1010.68 1011.44 1008.84 1010.48 1013.24 1012.80 1012.32 1010.76 1009.24 1008.24 1007.16 1005.96 1005.28 1003.20 1003.48 1002.92 1002.12 1001.60 1001.08 1000.80 1000.76 1000.48 1000.48 1000.48 1000.40 1000.16 1000.12 1000.48 1000.84 1000.88 1001.08 1001.32 1001.56 1001.68 1001.92 1002.04 1002.08 1002.40 1002.76 1003.04 1003.44 1004.16 1004.72 1005.28 1005.64 1006.12 1006.68 1006.76 1007.12 1007.60 1008.16 1008.64 1009.00
1002.76 1003.04 1003.32 1006.96 1005.80 1004.00 1003.76 1003.16 1004.80 1003.56 1005.72 1007.48 1010.32 1008.72 1008.44 1008.96 1010.76 1011.68 1009.32 1009.36 1007.76 1003.68 1003.32 1002.56 1002.36 1002.00 1001.44 1000.88 1001.20 1001.08 1000.08 999.64 999.56 999.48 999.48 999.80 1000.16 1000.08 1000.00 1000.12 1000.24 1000.40 1000.44 1000.60 1000.92 1001.32 1001.68 1001.92 1002.24 1002.52 1003.04 1003.64 1004.20 1004.56 1005.12 1005.60 1005.92 1006.44 1007.04 1007.44 1007.76 1008.16 1008.24
1002.80 1005.64 1003.84 1004.56 1004.28 1005.76 1005.88 1005.64 1005.72 1006.12 1005.72 1004.60 1005.32 1007.00 1007.64 1009.08 1009.84 1010.12 1009.64 1009.36 1005.44 1002.96 1001.08 1001.40 1001.36 1000.72 1000.56 1000.60 1000.68 1000.52 1000.08 999.28 998.68 998.48 998.64 998.88 999.20 999.36 999.32 999.32 999.52 999.68 999.84 1000.00 1000.20 1000.40 1000.68 1001.00 1001.40 1001.88 1002.48 1003.04 1003.28 1003.76 1004.44 1004.84 1005.56 1005.96 1006.40 1006.56 1006.96 1007.32 1007.72
1004.60 1003.20 1002.20 1001.68 1002.08 1002.40 1003.32 1004.20 1005.04 1004.72 1006.16 1008.08 1009.48 1009.52 1006.44 1006.64 1008.48 1009.56 1009.84 1008.60 1004.40 1001.36 1000.40 1000.04 999.92 999.32 999.24 999.08 999.72 999.84 999.36 998.92 998.40 998.04 997.88 998.08 998.64 998.56 998.56 998.60 998.72 999.04 999.32 999.48 999.60 999.96 1000.40 1001.04 1001.40 1001.84 1002.04 1002.48 1003.04 1003.44 1003.52 1004.00 1004.64 1005.24 1005.60 1006.04 1006.36 1006.68 1007.04
1003.60 1002.56 1001.52 1000.32 1000.16 1000.56 1001.12 1002.00 1003.52 1002.80 1003.52 1004.64 1006.92 1009.28 1007.64 1006.88 1006.16 1006.00 1006.60 1008.24 1004.76 1000.00 999.92 1000.00 999.32 999.04 998.68 998.36 998.60 999.04 998.60 998.32 997.96 997.88 997.64 997.84 998.16 998.36 998.32 998.44 998.44 998.52 998.80 999.08 999.40 999.92 1000.28 1000.56 1000.80 1001.12 1001.60 1001.96 1002.24 1002.52 1002.88 1003.32 1003.84 1004.20 1004.40 1004.80 1005.20 1005.76 1006.28
1002.44 1001.76 1001.32 1001.24 1001.36 1001.96 1002.60 1001.92 1001.32 1002.32 1003.64 1003.28 1004.32 1004.72 1005.12 1006.60 1006.80 1008.24 1007.60 1008.60 1004.52 1000.72 999.56 998.80 998.76 998.48 998.36 998.52 999.00 999.00 998.44 998.00 997.80 997.80 997.80 997.84 998.16 998.16 998.12 998.08 998.16 998.32 998.56 999.00 999.48 999.88 1000.08 1000.28 1000.60 1000.84 1001.00 1001.28 1001.60 1001.96 1002.32 1002.64 1003.08 1003.24 1003.64 1004.12 1004.64 1005.24 1005.76
1005.80 1004.36 1002.44 1002.12 1002.28 1002.36 1002.84 1002.72 1001.92 1001.72 1001.84 1002.00 1002.12 1003.44 1005.40 1006.08 1005.20 1005.44 1007.12 1008.12 1004.84 1000.76 999.96 1000.52 1000.00 999.92 999.56 998.84 998.60 999.00 999.04 998.36 998.08 998.04 998.08 998.12 998.20 998.40 998.36 998.28 998.24 998.36 998.56 998.88 999.08 999.12 999.40 999.64 999.88 1000.20 1000.52 1000.84 1001.12 1001.44 1001.64 1002.04 1002.20 1002.44 1002.96 1003.36 1003.96 1004.40 1005.00
1008.36 1008.40 1007.44 1005.64 1004.20 1003.80 1003.80 1003.00 1002.00 1001.80 1002.28 1002.72 1003.72 1005.72 1006.28 1007.36 1004.60 1004.64 1005.44 1004.84 1002.72 1000.56 1000.64 1000.76 1000.32 1000.16 999.72 998.76 998.44 998.52 998.76 998.72 998.28 998.12 998.08 997.68 998.00 998.28 998.20 998.16 998.24 998.36 998.12 998.16 998.48 998.72 998.84 999.08 999.24 999.56 999.88 1000.16 1000.44 1000.76 1000.96 1001.08 1001.56 1002.08 1002.48 1002.76 1003.24 1003.84 1004.40
1005.68 1006.76 1007.68 1007.00 1006.68 1005.80 1005.28 1003.76 1003.80 1002.96 1001.92 1001.68 1002.24 1003.24 1005.36 1006.24 1005.40 1005.24 1003.12 1003.32 1002.84 1001.88 1000.80 1000.12 1000.04 999.96 999.64 998.76 998.16 998.48 998.72 998.32 998.28 998.32 998.40 998.36 998.24 998.32 998.28 998.24 998.12 998.16 998.40 998.32 998.04 998.20 998.40 998.48 998.64 998.92 999.28 999.60 999.76 1000.16 1000.48 1000.60 1000.92 1001.44 1001.92 1002.40 1002.84 1003.36 1003.84
1007.28 1006.52 1006.60 1005.76 1006.24 1007.12 1006.08 1005.88 1004.72 1003.72 1003.36 1002.32 1002.76 1003.64 1004.28 1003.08 1005.20 1006.00 1002.24 1002.56 1003.64 1002.36 1001.16 1000.36 999.40 999.48 999.76 999.52 999.04 998.60 998.32 997.72 997.80 998.20 998.40 998.32 998.24 998.00 998.08 998.16 998.16 998.08 997.84 997.84 997.96 997.92 998.12 998.20 998.20 998.48 998.60 998.80 999.12 999.52 999.92 1000.08 1000.40 1000.92 1001.36 1001.88 1002.44 1002.96 1003.44
1007.00 1006.40 1005.88 1005.60 1006.00 1006.20 1006.04 1005.52 1005.16 1004.76 1004.08 1003.92 1003.60 1002.64 1002.68 1002.40 1003.88 1003.72 1002.40 1002.76 1003.52 1001.96 1000.64 999.80 999.28 998.48 998.48 998.36 997.72 997.40 997.64 997.92 997.80 997.76 997.72 997.68 997.52 997.64 997.88 997.92 997.84 997.76 997.76 997.60 997.48 997.48 997.52 997.68 998.04 998.16 998.36 998.52 998.76 999.16 999.32 999.60 999.88 1000.16 1000.40 1001.16 1001.84 1002.40 1002.84
1006.88 1006.20 1005.56 1005.40 1006.04 1005.84 1005.88 1005.60 1005.08 1004.52 1004.32 1004.04 1003.92 1003.40 1001.76 1001.84 1002.08 1001.48 1001.32 1002.28 1001.76 1000.28 999.68 999.12 998.52 997.88 997.60 997.28 997.64 998.20 998.00 997.40 997.24 997.28 997.36 997.28 997.12 996.84 996.68 996.72 997.16 997.36 997.24 997.16 997.20 997.24 997.48 997.56 997.60 997.68 997.84 998.12 998.28 998.52 998.80 999.08 999.40 999.44 999.96 1000.68 1001.36 1001.92 1002.28
1006.88 1006.04 1005.44 1005.24 1005.44 1005.84 1005.88 1004.96 1004.52 1004.16 1003.76 1003.60 1003.28 1003.08 1002.48 1001.88 1001.80 1001.12 1000.84 1002.08 1001.96 998.88 998.04 997.96 997.32 997.68 998.60 999.04 998.64 997.92 997.64 997.32 997.56 997.60 997.16 996.68 996.44 996.36 996.08 996.52 997.00 997.12 997.12 996.96 996.96 997.08 997.04 997.04 997.04 997.12 997.12 997.20 997.56 997.92 998.28 998.56 998.88 999.00 999.36 1000.24 1000.84 1001.24 1001.32
1007.08 1005.88 1005.96 1005.72 1005.28 1005.04 1004.88 1004.28 1003.56 1003.32 1003.36 1003.60 1002.56 1003.04 1001.80 1002.44 1002.64 1002.32 1002.12 1002.48 1001.92 999.56 998.72 998.60 998.84 999.32 999.40 998.84 997.96 997.48 997.16 997.16 997.36 997.32 996.80 996.48 996.20 996.80 997.00 997.08 996.96 997.04 996.96 996.88 996.76 996.56 996.36 996.32 996.44 996.60 996.76 996.88 997.24 997.48 997.64 998.00 998.08 998.40 999.04 999.60 1000.12 1000.44 1000.52
1007.52 1006.12 1005.88 1006.24 1005.76 1004.68 1004.44 1003.24 1001.92 1001.52 1001.28 1001.16 1001.00 1000.68 1000.44 1000.40 1000.56 1001.92 1002.48 1001.60 999.48 998.88 998.60 999.04 998.60 998.44 998.36 998.28 998.00 997.60 997.20 997.20 997.16 996.80 996.52 996.24 996.24 996.72 997.04 997.28 997.08 996.72 996.40 996.16 996.16 995.84 995.60 995.68 995.76 995.60 995.84 996.56 996.84 996.68 997.04 997.12 997.64 998.20 998.68 999.00 999.44 999.92 1000.32
1007.60 1006.60 1006.28 1006.04 1006.40 1007.24 1004.56 1002.24 1002.36 1001.92 1001.60 1000.96 1001.28 1000.76 1000.44 999.76 999.72 999.72 999.12 998.92 998.04 998.00 998.64 998.92 998.52 998.00 997.56 996.96 996.32 996.24 996.56 996.76 996.76 996.60 996.28 996.12 996.40 996.84 996.84 996.72 996.64 996.36 996.16 995.80 995.32 995.16 995.04 994.76 994.64 994.88 995.40 995.88 996.04 996.20 996.56 997.12 997.72 997.96 998.40 998.64 998.96 999.36 999.72
1008.12 1006.84 1006.60 1007.20 1007.80 1005.00 1002.04 1001.48 1001.04 1001.36 1001.40 1001.76 1001.40 999.96 999.04 998.72 998.60 998.88 998.96 998.48 998.28 997.72 997.80 997.72 997.28 996.64 995.96 996.44 996.60 996.60 996.68 996.84 996.60 996.24 996.12 996.52 996.80 996.92 996.80 996.68 996.32 996.20 996.04 995.72 995.32 995.04 994.76 994.64 994.72 995.00 995.28 995.16 995.52 996.20 996.60 997.12 997.32 997.84 998.20 998.56 998.88 999.16 999.60
1007.24 1007.72 1007.20 1008.68 1005.08 1003.20 1001.88 1000.64 1001.40 1001.08 1001.20 1001.36 1001.20 1000.60 999.52 998.72 998.20 998.16 998.52 998.08 997.56 997.24 997.40 997.12 996.48 996.72 997.44 997.64 997.84 997.60 997.20 997.16 997.08 996.84 996.52 996.44 996.60 996.68 996.52 996.60 996.48 996.24 995.88 995.56 995.08 994.72 994.20 994.36 994.40 994.48 994.72 994.80 995.36 995.88 996.12 996.76 997.20 997.52 997.88 998.36 998.72 999.08 999.56
1008.32 1006.96 1006.48 1005.40 1003.04 1003.64 1001.84 1001.44 1002.24 1002.28 1002.48 1002.84 1002.80 1003.04 1000.80 1000.08 999.96 999.60 998.92 997.96 997.12 996.68 996.68 996.80 996.84 997.28 997.44 997.80 997.64 997.20 997.04 997.20 997.04 996.88 996.64 996.60 996.60 996.52 996.32 996.04 995.92 995.60 995.36 995.24 994.80 994.32 994.20 994.08 994.16 994.32 994.36 994.64 995.12 995.68 996.24 996.44 996.80 997.20 997.56 998.04 998.24 998.48 998.80
1006.68 1007.04 1007.20 1005.88 1005.60 1006.12 1002.96 1002.36 1001.88 1001.52 1001.72 1001.84 1002.32 1003.00 1002.28 1000.44 1000.80 1000.56 1000.68 1000.04 998.44 997.52 996.84 997.28 997.60 997.84 998.44 998.80 997.28 996.60 996.76 996.88 997.00 996.84 996.68 996.44 996.40 996.24 996.16 995.88 995.52 995.16 994.84 994.60 994.36 994.16 994.08 994.04 993.88 993.96 994.16 994.52 995.04 995.64 996.08 996.32 996.80 997.20 997.52 997.64 997.68 998.00 998.36
1006.52 1006.84 1006.96 1006.08 1006.08 1003.88 1001.44 1002.16 1001.92 1001.32 1001.36 1001.76 1001.72 1002.96 1002.16 1001.04 1001.32 1000.88 1000.88 1000.48 999.84 999.48 998.64 997.92 998.32 998.48 999.36 998.24 996.16 995.92 996.40 996.68 996.60 996.80 996.68 996.52 996.32 996.20 996.20 996.12 995.76 995.20 994.88 994.48 994.08 993.96 993.92 994.28 994.04 993.96 994.20 994.52 995.08 995.64 995.88 996.16 996.48 996.92 997.08 997.04 997.16 997.52 997.84
1006.76 1006.00 1006.24 1005.72 1003.96 1003.88 1001.80 1001.80 1001.72 1001.00 1000.76 1001.48 1001.88 1003.60 1001.48 1001.88 1001.24 1001.00 1000.72 1000.72 1000.24 999.76 999.40 998.80 998.24 998.08 998.64 997.48 995.24 995.40 995.96 996.44 996.80 997.00 997.12 996.88 996.68 996.40 996.16 995.96 995.56 995.32 995.04 994.76 994.72 994.76 994.76 994.80 994.36 994.20 994.28 994.60 995.04 995.48 995.76 995.96 996.44 996.60 996.60 996.84 996.96 997.20 997.44
1006.92 1006.72 1005.52 1004.24 1002.80 1001.56 1000.88 1001.20 1001.20 1000.72 1001.08 1001.76 1003.16 1002.80 1001.44 1001.32 1001.24 1000.60 1000.68 1000.52 1000.04 999.68 999.40 998.96 998.96 996.48 996.52 996.08 995.72 995.76 996.16 996.80 997.24 997.16 997.16 997.08 996.96 996.80 996.56 996.40 995.84 995.56 995.52 995.48 995.56 995.48 995.28 994.96 994.56 994.36 994.40 994.80 995.24 995.44 995.72 996.12 996.40 996.28 996.20 996.16 996.40 996.68 996.96
1007.00 1006.16 1006.00 1004.40 1002.56 1000.40 999.96 1000.68 1001.04 1000.56 1001.44 1003.84 1002.04 1001.16 1001.72 1000.96 1000.72 1000.52 1000.72 1000.76 1000.12 999.60 999.28 998.88 998.00 997.52 997.52 996.80 996.60 996.52 996.68 997.08 997.36 997.32 997.28 997.12 996.92 996.68 996.60 996.48 996.16 995.96 995.84 995.80 995.64 995.56 995.28 995.00 994.64 994.52 994.64 995.08 995.32 995.56 995.92 996.24 996.12 995.80 995.88 996.16 996.40 996.64 996.96
1006.60 1006.16 1006.28 1005.68 1006.60 1001.68 999.92 1000.80 1001.32 1000.88 1002.16 1000.84 1001.32 1001.20 1000.60 1000.64 1000.48 1000.56 1000.60 1000.44 1000.04 999.52 998.96 998.00 997.64 997.84 997.56 997.44 997.32 997.40 997.44 997.44 997.60 997.60 997.60 997.52 997.40 997.24 997.00 996.80 996.40 996.08 996.20 996.28 996.28 996.12 995.76 995.36 995.04 994.72 994.76 995.36 995.60 995.72 996.16 996.32 996.00 995.84 995.96 996.12 996.40 996.64 996.92
1006.52 1006.32 1006.32 1005.16 1002.60 1001.36 1000.40 1000.16 1000.92 1000.36 1000.24 1000.40 1000.88 1001.00 1000.56 1000.40 1000.36 1000.52 1000.72 1000.32 1000.12 999.72 999.04 998.32 998.00 997.92 998.16 998.44 998.52 998.24 997.96 997.72 997.64 997.64 997.64 997.56 997.40 997.28 997.08 996.84 996.52 996.16 996.24 996.36 996.52 996.48 996.20 996.08 995.84 995.56 995.32 995.72 995.84 996.16 996.76 996.56 996.36 996.12 995.96 996.08 996.28 996.56 996.76
1006.00 1004.60 1003.68 1002.64 1002.80 1002.20 1001.08 1000.40 999.80 999.76 1000.28 1000.40 1000.60 1000.60 1000.44 1000.36 1000.36 1000.40 1000.64 1000.56 1000.00 999.64 999.20 998.64 998.52 998.80 998.68 998.48 998.28 998.44 998.28 998.00 997.84 997.84 997.76 997.64 997.52 997.36 997.24 997.04 996.68 996.44 996.56 996.76 996.76 996.76 996.60 996.48 996.36 996.28 996.08 996.36 996.68 997.04 997.04 996.76 996.72 996.56 996.44 996.20 996.28 996.52 996.68
1005.56 1004.48 1004.00 1003.44 1002.92 1002.28 1001.88 1000.88 1000.20 1000.16 1000.44 1000.24 1000.24 1000.36 1000.40 1000.40 1000.40 1000.36 1000.72 1000.44 1000.16 999.80 999.28 999.04 998.96 998.88 998.76 998.48 998.28 998.24 998.24 998.24 998.08 997.84 997.72 997.56 997.32 997.12 997.00 997.00 996.84 996.80 996.84 996.92 997.00 997.12 997.08 996.84 996.76 996.76 996.76 996.76 997.20 997.36 996.96 996.84 996.76 996.64 996.40 996.44 996.56 996.60 996.56
1007.28 1006.52 1002.92 1003.00 1002.72 1002.24 1002.12 1001.80 1000.96 1000.32 1000.20 1000.32 1000.12 1000.40 1000.16 1000.16 1000.20 1000.24 1000.28 1000.16 1000.08 999.92 999.60 999.04 998.84 998.80 998.60 998.48 998.28 998.32 998.48 998.52 998.32 998.08 998.00 997.80 997.56 997.44 997.36 997.16 996.92 996.84 996.88 997.08 997.28 997.28 997.44 997.24 997.08 997.08 997.12 997.12 997.16 997.08 996.96 996.72 996.64 996.56 996.60 996.64 996.72 996.76 996.88
1007.92 1005.96 1004.24 1003.88 1003.92 1003.24 1002.28 1002.00 1001.80 1001.24 1000.80 1000.48 1000.16 999.92 999.56 999.56 999.96 1000.16 1000.04 999.88 999.92 999.80 999.92 999.48 999.00 999.04 998.92 998.72 998.28 998.28 998.52 998.56 998.32 998.16 997.96 997.88 997.72 997.44 997.16 997.04 996.92 996.88 996.92 997.08 997.20 997.24 997.40 997.36 997.24 997.24 997.24 997.32 997.24 997.16 997.08 996.96 996.84 996.80 996.92 997.00 997.04 997.12 997.12
1006.28 1005.48 1004.76 1004.28 1004.28 1004.12 1003.16 1002.16 1001.72 1001.12 1000.64 1000.52 1000.08 999.76 999.28 999.24 1000.16 1000.28 999.88 999.84 999.88 999.92 1000.12 999.64 999.08 999.08 999.20 998.84 998.48 998.36 998.36 998.36 998.32 998.32 998.12 997.92 997.68 997.48 997.44 997.32 997.20 997.24 997.28 997.36 997.44 997.52 997.60 997.44 997.40 997.40 997.48 997.40 997.32 997.28 997.20 997.08 996.96 997.12 997.28 997.24 997.24 997.40 997.48
1007.80 1006.36 1003.92 1003.44 1004.36 1003.88 1002.76 1002.28 1001.76 1001.32 1000.64 1000.12 999.68 999.32 999.04 999.64 1000.56 1000.52 1000.20 1000.00 999.92 1000.04 1000.12 999.84 999.24 999.16 999.28 999.24 998.88 998.68 998.48 998.52 998.52 998.32 998.16 997.92 997.76 997.68 997.56 997.44 997.40 997.36 997.36 997.48 997.68 997.76 997.72 997.56 997.52 997.60 997.56 997.48 997.36 997.28 997.20 997.16 997.12 997.32 997.44 997.56 997.68 997.76 997.72
1005.16 1003.60 1003.56 1003.52 1003.56 1003.68 1003.08 1002.32 1001.48 1000.92 1000.28 999.60 999.44 999.60 999.60 999.88 1000.60 1000.80 1000.64 1000.24 1000.12 1000.44 1000.52 1000.24 999.72 999.44 999.60 999.56 999.16 999.00 998.76 998.72 998.60 998.56 998.32 998.16 998.00 997.88 997.68 997.64 997.56 997.44 997.40 997.36 997.36 997.44 997.48 997.44 997.44 997.44 997.48 997.44 997.40 997.40 997.36 997.32 997.28 997.40 997.48 997.84 998.04 998.16 998.20
1003.68 1003.32 1003.60 1003.64 1004.16 1004.44 1003.36 1002.36 1001.76 1001.00 1000.08 999.16 999.44 999.48 999.56 999.92 1000.76 1000.84 1000.68 1000.56 1000.52 1000.76 1000.80 1000.52 1000.00 999.68 999.60 999.72 999.52 999.40 999.00 998.76 998.76 998.76 998.64 998.44 998.08 997.68 997.28 997.04 997.00 996.92 996.96 997.00 997.08 997.32 997.36 997.44 997.56 997.60 997.64 997.64 997.60 997.52 997.52 997.56 997.48 997.56 997.64 997.84 998.16 998.28 998.28
1003.64 1003.04 1003.40 1003.36 1003.56 1003.48 1003.04 1002.72 1002.08 1001.28 1000.04 998.60 999.36 999.68 999.68 1000.08 1000.64 1000.76 1000.72 1000.80 1000.60 1000.72 1001.00 1000.92 1000.36 999.84 999.72 999.88 999.84 999.72 999.36 999.12 998.96 999.00 998.92 998.72 998.40 997.96 997.72 997.52 997.48 997.48 997.52 997.48 997.48 997.52 997.56 997.64 997.68 997.76 997.80 997.84 997.72 997.72 997.72 997.72 997.68 997.76 997.76 997.76 997.96 998.12 998.24
Wind_Speed
16 18 15 12 16 11 10 10 15 14 6 10 7 1 1 1 1 9 6 7 10 4 10 11 10 7 10 12 13 13 13 12 11 11 13 16 18 18 18 20 20 21 19 18 18 19 18 19 19 20 19 19 20 18 17 19 19 17 19 19 19 17 17
15 13 18 14 19 5 10 11 11 9 6 9 8 9 3 6 9 5 6 14 12 6 9 4 12 12 12 12 14 14 14 11 11 13 13 15 17 19 21 21 20 19 20 21 20 19 21 21 23 22 20 19 18 18 19 20 19 20 19 19 19 18 17
11 5 13 11 11 14 13 10 12 10 8 11 8 5 11 10 11 6 7 10 13 11 11 3 6 12 12 12 12 13 13 13 12 12 15 15 15 15 16 19 17 18 19 20 21 23 24 22 21 20 20 19 17 18 19 20 21 22 22 18 18 15 16
11 11 13 14 12 6 6 7 13 5 3 9 10 12 1 5 9 3 7 6 13 12 12 9 8 7 10 11 10 12 14 14 13 11 12 14 14 15 16 17 18 20 22 24 24 23 23 23 21 20 21 19 22 21 20 19 19 17 17 17 17 18 18
13 10 10 14 14 15 10 10 11 6 7 2 7 2 10 7 7 8 7 9 6 5 9 13 16 13 10 12 10 10 12 13 13 12 12 11 14 14 16 17 18 20 22 23 23 23 22 21 18 19 19 21 22 20 20 22 20 20 21 20 19 17 16
10 6 12 16 18 18 15 15 14 14 12 9 11 11 4 8 7 4 5 14 3 3 4 9 13 15 14 11 12 11 12 14 14 12 13 10 11 15 16 16 17 18 19 20 21 19 17 17 18 20 19 18 20 21 21 21 21 19 21 20 18 17 17
7 5 14 16 15 19 19 16 14 15 14 10 9 9 10 6 10 1 5 8 9 6 7 8 9 9 12 11 10 11 11 11 11 10 10 6 7 9 12 14 15 16 16 17 17 17 18 19 18 20 19 18 20 22 21 19 21 22 22 21 19 17 17
1 3 1 4 5 3 8 13 14 14 16 16 14 11 4 9 6 7 7 11 5 3 3 8 10 9 7 3 4 10 11 9 9 10 10 9 8 9 9 10 12 12 12 12 11 14 16 18 17 18 18 18 18 19 19 20 23 24 22 19 18 17 17
5 7 7 8 4 4 9 10 13 13 14 18 18 4 3 9 13 15 9 17 4 4 1 2 4 4 6 8 7 6 8 7 7 7 6 5 5 3 7 10 11 11 12 14 15 16 17 17 15 16 16 16 18 18 19 20 21 22 20 18 18 19 20
14 16 17 15 12 7 2 5 11 15 19 20 15 12 6 10 10 14 13 13 2 3 1 3 4 4 6 9 7 3 6 8 7 6 6 7 6 7 9 9 10 13 15 14 14 15 15 15 16 17 17 17 18 17 20 20 19 19 19 18 18 18 19
3 2 3 3 4 3 6 3 4 7 15 19 17 9 9 13 6 12 16 8 4 5 5 3 4 5 8 9 7 7 5 7 7 6 5 4 4 5 7 8 8 7 8 14 17 16 14 17 16 15 16 17 18 16 18 20 18 17 17 16 17 17 19
3 5 5 6 4 6 7 9 8 6 8 15 19 17 12 8 6 14 14 8 12 9 0 3 5 5 7 7 8 7 6 8 6 3 3 5 7 7 6 7 10 12 12 13 14 15 14 14 14 15 15 17 16 16 18 18 18 17 14 16 16 16 18
5 7 9 6 4 6 7 9 10 13 8 8 17 18 9 14 15 18 4 8 9 10 13 9 7 5 6 7 9 8 5 4 4 4 5 5 7 5 5 8 9 10 12 12 13 14 14 15 16 17 15 16 16 14 14 15 17 19 17 16 17 17 17
5 6 9 5 3 4 7 10 12 13 13 13 9 11 15 15 14 14 12 10 15 14 14 14 13 6 8 8 4 4 5 8 4 3 4 6 6 6 8 8 9 10 12 11 12 12 11 14 16 17 16 16 17 18 17 17 16 17 14 14 16 17 17
6 6 7 6 5 7 11 10 11 12 12 12 12 11 13 14 16 19 17 8 13 9 7 11 9 5 1 4 8 8 5 4 2 2 4 5 7 7 8 6 6 7 9 11 10 11 13 14 17 17 17 17 15 18 15 17 17 16 16 17 16 17 17
6 2 5 9 11 12 12 12 12 11 13 15 12 11 9 11 11 10 16 13 12 3 5 7 4 3 6 8 8 8 6 5 3 5 6 6 8 7 6 5 6 7 9 11 12 14 15 16 16 14 16 15 16 18 17 16 17 16 17 16 17 17 16
7 5 6 9 13 11 11 15 14 16 16 15 11 11 10 13 10 14 14 12 6 7 7 10 9 10 11 11 9 8 9 7 7 8 9 8 7 5 4 6 7 9 9 10 12 14 14 14 15 18 16 14 16 17 15 16 14 15 16 17 16 16 14
4 7 8 9 7 9 8 4 1 2 8 9 15 17 16 14 13 11 7 10 9 9 8 13 13 12 12 13 13 7 8 7 8 9 9 9 6 5 6 6 8 8 8 9 10 12 13 14 17 14 13 14 13 11 12 10 12 15 17 17 16 16 15
6 5 7 7 11 11 4 3 2 5 8 8 11 15 15 16 16 16 16 13 12 10 9 12 14 16 10 2 2 5 6 5 7 8 6 5 5 6 5 6 5 6 8 10 11 11 12 13 9 9 12 14 12 11 10 12 13 13 14 13 12 12 13
4 3 5 7 7 9 15 9 4 3 5 2 5 10 12 11 13 14 18 15 14 12 10 11 11 5 2 1 0 2 3 5 6 6 6 4 3 4 3 5 6 6 7 8 9 10 8 9 11 13 14 13 13 12 11 12 11 12 12 12 12 11 12
8 6 10 15 11 17 19 8 4 5 4 5 4 4 1 5 7 8 9 10 14 15 10 10 6 3 4 4 5 4 6 5 5 5 3 2 3 4 5 5 7 7 8 8 9 7 7 9 10 12 11 12 11 11 12 12 12 12 12 13 14 14 15
9 9 9 10 9 12 6 6 0 2 4 2 2 2 4 2 7 8 8 9 11 12 8 4 3 5 5 8 7 9 8 6 4 2 1 1 2 4 5 6 6 7 6 5 5 6 7 8 9 8 9 10 10 10 11 11 12 12 13 15 14 13 14
9 11 12 11 11 7 3 7 2 4 1 3 5 3 6 4 7 9 8 10 10 9 9 5 5 5 8 9 8 7 9 6 3 3 1 1 2 3 4 5 7 7 6 2 2 3 4 6 6 8 9 11 11 11 11 12 13 14 15 14 14 14 13
10 10 11 14 7 9 1 3 1 4 2 5 4 7 4 5 11 11 10 11 12 11 9 7 9 10 10 9 6 10 9 7 4 2 1 2 3 3 3 4 5 6 6 6 8 7 6 4 2 5 9 10 12 10 10 11 13 14 13 9 9 10 12
13 13 12 9 10 5 4 3 2 3 3 4 5 9 2 4 9 11 11 12 12 11 11 7 9 9 3 6 7 11 10 8 6 3 1 1 2 3 4 5 6 6 7 8 8 8 5 3 1 3 6 8 9 8 9 10 11 10 9 9 10 11 11
13 12 12 12 9 3 7 4 3 0 3 6 8 3 5 8 10 9 10 12 11 11 12 9 10 4 2 3 5 8 8 7 6 4 2 2 2 2 4 5 6 7 8 10 10 10 8 6 4 4 5 6 6 6 7 8 7 4 4 6 8 9 10
9 10 10 7 10 3 7 7 2 5 7 2 2 5 4 2 7 10 9 9 10 11 11 10 7 1 0 3 5 6 7 7 5 4 3 2 3 3 4 5 6 7 9 11 11 10 9 9 7 4 6 6 6 6 6 4 3 2 4 6 8 9 9
10 10 12 7 4 4 5 8 8 5 3 2 2 2 3 3 4 7 9 7 9 11 9 7 3 3 4 3 4 4 5 5 5 4 3 3 4 5 5 5 7 9 11 10 11 11 10 10 10 9 6 7 6 7 7 4 3 2 3 7 8 9 9
6 6 6 6 11 13 11 8 1 6 5 5 4 3 0 2 4 6 6 8 8 9 9 2 2 4 2 5 4 3 4 5 5 5 4 4 5 5 6 7 8 9 10 11 11 11 11 12 11 11 9 9 10 9 5 5 4 3 3 2 6 8 9
8 13 15 15 12 12 12 8 1 6 6 5 4 2 1 5 4 5 5 7 7 7 9 3 2 3 4 6 6 5 4 4 4 5 5 5 6 7 7 8 8 9 10 11 12 12 11 11 11 11 10 10 11 7 5 5 4 4 3 2 1 4 6
7 6 1 8 9 8 11 9 4 2 4 5 5 4 5 6 6 5 5 4 6 6 7 3 4 4 5 7 7 6 5 4 4 5 6 6 6 7 7 6 7 8 9 10 11 12 11 10 9 9 10 10 9 7 8 7 6 6 5 5 4 2 1
7 9 14 11 12 13 11 9 6 5 5 5 5 5 8 9 6 5 6 5 6 6 6 6 5 5 4 7 8 7 6 5 5 5 6 6 7 7 7 6 7 9 10 10 10 11 10 9 9 9 9 9 9 8 7 7 6 6 6 6 5 5 5
9 14 18 16 9 13 15 13 11 7 5 7 8 8 12 14 9 6 7 9 7 6 6 6 6 6 5 5 8 9 7 7 7 7 7 8 8 8 9 9 9 9 10 10 10 10 10 8 9 9 10 9 9 9 8 7 7 7 7 7 6 7 6
10 11 9 4 3 5 8 12 10 9 9 6 9 9 14 14 9 7 7 8 9 9 8 7 7 8 6 6 4 6 6 6 7 8 8 8 10 10 10 10 11 12 12 12 12 12 10 8 8 9 10 10 10 10 9 8 8 8 8 8 8 7 6
13 11 8 5 6 10 12 10 11 10 9 5 13 12 13 12 8 6 7 7 8 9 9 9 9 9 8 7 6 7 8 8 7 7 8 10 10 10 11 12 13 13 13 13 13 13 11 10 11 11 11 10 10 10 10 9 9 9 9 8 7 7 6
20 21 17 14 7 10 15 16 13 11 9 9 14 13 13 13 8 7 8 8 8 6 7 8 9 8 8 7 6 8 9 9 9 9 8 8 8 10 12 14 14 15 15 14 15 14 12 12 12 11 12 12 11 11 9 7 6 7 9 9 8 7 6
17 13 11 11 10 11 13 15 18 17 9 13 12 12 12 13 11 8 10 8 9 8 6 6 8 8 7 6 6 7 8 9 9 10 10 9 11 11 12 13 13 13 12 12 12 12 12 12 12 12 12 11 10 10 10 9 8 9 10 10 9 8 7
Wind_Direction
174 196 173 172 158 201 171 169 204 217 149 184 231 293 357 49 296 245 170 257 255 282 264 241 242 226 239 231 228 227 229 217 188 195 199 202 204 203 200 204 202 200 196 195 199 199 199 198 197 198 196 190 196 194 191 193 195 193 192 194 197 196 198
205 195 173 173 187 147 127 200 201 119 130 215 220 238 157 226 246 235 177 230 246 238 274 161 202 205 220 220 222 226 229 220 191 205 203 203 204 201 200 200 200 193 195 197 199 202 201 198 198 197 196 194 194 193 195 194 192 194 194 193 195 195 195
174 111 170 173 193 152 191 205 141 163 168 194 192 211 233 220 231 247 218 227 250 233 230 167 191 208 216 222 216 219 225 229 221 208 210 209 204 200 199 202 200 198 199 198 198 202 202 202 199 196 193 193 192 194 198 198 196 197 194 193 194 195 195
143 170 177 197 180 212 18 123 168 185 183 199 168 201 323 201 240 235 247 162 253 208 228 221 251 236 231 223 220 224 223 220 219 216 209 203 193 198 200 202 201 199 202 202 201 201 202 202 198 199 197 196 197 198 196 198 201 197 193 192 191 193 195
145 189 191 199 184 185 190 193 193 160 213 21 198 167 212 203 226 230 265 264 250 182 184 208 224 235 235 235 228 222 228 231 230 223 211 194 194 197 201 202 201 201 203 204 205 204 204 203 199 198 196 196 198 197 196 196 194 191 192 193 191 194 193
201 181 180 204 199 196 198 194 199 185 180 171 184 212 175 222 211 225 203 251 247 141 166 198 213 213 218 219 222 230 229 230 231 231 226 206 198 199 199 200 201 202 202 203 204 202 198 198 200 198 199 198 197 197 199 196 198 197 199 197 195 192 192
197 180 196 215 216 206 204 195 201 192 198 185 194 219 193 186 223 346 252 294 282 140 160 203 213 220 227 231 215 224 231 236 243 245 245 234 216 215 208 204 206 206 202 200 199 194 188 194 196 197 197 199 197 198 197 194 195 199 198 197 194 188 189
196 260 322 277 283 305 242 220 212 193 200 195 210 220 138 193 168 201 217 246 246 152 183 198 202 214 226 253 231 232 240 240 242 243 240 230 210 209 207 207 206 203 197 188 194 196 198 202 198 193 193 195 196 196 196 195 197 199 197 196 192 186 188
222 234 232 225 84 210 226 218 212 212 206 204 214 180 83 220 201 203 200 239 223 163 106 270 280 267 250 241 229 226 248 246 240 256 268 262 240 200 201 199 196 191 191 190 199 201 200 200 196 195 192 191 194 196 195 199 202 199 196 194 192 189 190
195 201 205 212 205 190 292 280 230 209 209 207 207 207 167 225 198 201 218 232 97 75 353 228 241 255 275 267 259 241 248 270 264 235 227 236 225 205 201 200 191 194 196 197 201 202 200 196 195 196 198 194 195 194 196 200 202 197 197 193 193 188 189
235 24 357 342 321 307 228 204 281 243 219 216 213 213 200 216 129 213 228 229 259 178 172 194 228 236 241 257 259 239 239 253 253 258 269 270 267 237 218 206 205 198 202 205 206 203 199 198 194 192 193 193 195 192 194 198 199 194 191 188 186 186 188
18 319 302 314 318 274 274 284 281 279 248 225 217 214 220 113 164 237 225 196 234 224 73 214 217 234 252 267 277 284 251 232 241 254 244 243 244 236 209 205 201 203 205 206 207 204 198 197 193 194 193 193 191 190 194 195 193 189 183 182 180 185 189
329 295 293 303 279 257 261 267 270 271 281 270 236 228 199 170 213 238 167 170 221 239 233 238 246 228 239 246 245 253 306 331 239 219 238 247 250 258 235 222 214 211 209 208 209 203 200 195 192 195 194 197 197 196 196 189 192 195 188 182 184 188 190
311 308 299 298 277 278 275 264 268 268 268 265 266 261 243 218 231 240 237 177 220 224 230 228 231 218 242 266 327 309 244 239 227 223 231 247 255 244 240 235 219 216 219 214 212 207 201 198 198 196 195 197 196 195 193 189 192 194 173 176 183 193 196
304 309 301 289 299 306 286 281 264 263 261 262 253 251 253 254 246 242 244 195 234 216 226 238 218 187 275 276 260 250 245 267 245 221 249 255 259 260 258 259 249 235 229 223 214 206 202 200 201 200 199 199 195 198 190 191 192 189 183 189 189 195 201
293 293 319 317 319 307 281 270 264 248 243 249 242 236 234 236 235 239 252 247 241 187 233 254 258 228 229 237 241 245 250 248 245 247 250 245 248 257 270 285 274 250 236 225 216 212 208 205 201 199 201 197 191 198 192 192 191 185 187 187 191 198 201
275 294 318 329 317 307 277 249 246 247 248 248 251 254 240 237 233 232 231 246 272 250 214 246 239 235 236 238 242 247 242 230 234 238 243 247 248 243 254 257 254 252 245 234 223 220 214 204 200 203 196 193 196 197 191 194 181 184 187 188 191 196 191
280 310 313 315 294 253 243 58 278 271 266 270 250 245 235 234 228 250 260 256 248 236 214 229 238 232 233 233 239 229 235 232 229 237 235 242 250 256 255 257 257 255 248 247 239 225 220 214 208 200 191 194 200 197 197 180 182 194 193 197 196 196 187
276 290 296 278 250 238 5 306 73 289 262 257 260 265 248 237 232 241 250 248 250 245 224 223 231 238 246 2 269 205 214 232 240 241 243 234 241 251 253 257 262 260 258 254 249 243 232 223 207 181 193 200 188 179 170 179 188 191 195 197 199 197 192
265 293 231 239 214 353 307 329 86 10 190 347 281 252 241 249 245 229 233 228 238 241 230 227 237 269 59 89 46 230 220 227 238 240 244 247 259 265 277 282 279 272 270 264 256 246 232 206 203 194 195 190 186 179 170 178 181 189 191 195 197 189 189
238 228 239 249 325 321 297 308 50 5 19 351 6 306 19 353 357 330 288 256 242 242 224 225 230 193 210 243 216 205 224 219 240 251 269 294 295 307 303 301 295 289 277 264 259 249 218 200 196 194 188 181 178 166 176 184 182 186 186 192 194 190 192
208 239 259 268 255 251 246 131 128 254 267 263 221 186 268 88 28 8 339 302 286 276 261 221 194 156 220 246 245 190 198 201 212 231 266 294 295 316 320 319 309 306 296 272 245 230 198 191 190 172 171 174 167 166 176 174 179 189 193 201 197 190 191
203 215 231 234 241 233 95 145 339 320 295 225 175 195 249 118 355 351 339 313 306 303 307 271 165 187 221 234 240 154 167 166 173 172 144 355 1 7 355 339 338 345 349 344 147 148 167 177 176 167 166 167 172 178 179 180 184 190 198 201 193 191 186
234 229 223 237 230 227 173 148 336 323 352 173 205 276 274 37 343 330 327 315 308 309 304 289 223 210 230 232 229 139 144 136 117 146 108 56 34 30 14 19 13 13 9 51 56 55 51 20 353 180 169 173 181 177 178 179 188 199 203 194 182 181 189
227 231 244 261 256 222 258 268 121 352 143 189 232 239 38 314 330 326 330 317 311 305 292 268 239 229 318 359 85 120 121 127 129 130 97 52 25 24 20 22 33 57 54 58 62 54 43 21 100 163 173 174 178 175 168 181 197 202 192 179 180 189 190
220 223 239 244 270 257 150 166 168 33 166 222 240 48 242 301 322 339 328 320 312 309 291 274 256 329 359 86 88 110 120 123 131 130 131 126 95 59 47 42 57 74 71 65 63 56 47 35 65 136 156 169 164 152 168 190 200 195 172 179 189 192 190
227 236 245 246 249 190 193 127 185 177 236 301 19 299 308 339 329 328 331 317 324 323 302 282 250 161 153 109 113 112 121 133 130 135 130 127 94 65 59 57 62 80 77 65 56 50 42 38 30 61 134 118 122 135 144 95 63 158 187 193 187 195 196
219 212 219 220 295 15 161 189 230 165 234 63 210 273 279 27 358 342 325 322 325 326 311 286 206 161 137 92 106 118 121 125 129 125 135 126 114 88 70 66 72 75 76 69 62 52 50 45 45 38 62 93 99 100 73 28 4 354 193 192 192 196 199
261 269 275 321 329 309 307 277 276 140 148 165 174 217 161 35 30 348 321 319 333 332 328 291 181 149 121 123 128 125 127 128 128 126 116 103 89 82 77 78 80 79 79 75 66 55 48 49 49 51 58 77 80 72 49 41 40 35 10 228 197 201 204
298 278 260 274 282 293 292 290 218 151 153 163 171 186 137 57 24 357 327 327 341 343 327 276 118 117 125 122 117 118 121 115 112 110 98 88 79 75 80 80 83 89 87 83 78 72 59 50 50 50 52 57 62 52 46 46 46 42 55 53 214 226 220
324 285 53 222 236 248 275 269 254 171 157 161 157 133 93 70 34 8 350 356 13 4 351 24 114 122 130 118 105 99 91 80 85 90 87 79 76 73 69 73 88 91 90 86 81 79 72 62 61 59 57 55 51 45 39 36 36 39 53 56 68 77 261
237 250 280 294 315 310 272 260 248 203 178 154 139 111 88 70 40 8 23 24 45 29 20 14 74 82 104 116 114 106 94 88 87 83 85 86 80 75 73 78 81 80 80 78 77 74 72 70 71 69 67 63 59 58 56 49 46 48 50 48 55 51 45
288 287 280 278 285 277 269 256 254 238 184 152 114 93 77 67 44 17 34 30 32 43 26 10 49 65 52 83 102 107 103 91 85 81 82 81 79 80 78 73 75 80 84 84 80 76 73 71 69 67 64 62 59 57 54 51 52 59 60 60 61 61 57
265 244 259 87 225 251 232 235 228 221 216 159 101 82 73 66 43 18 42 49 37 28 16 9 28 43 35 27 39 75 78 77 78 87 87 84 84 85 85 87 89 88 87 87 86 82 79 76 74 71 69 67 62 56 55 56 60 66 69 68 67 63 58
264 257 257 260 273 293 296 263 227 226 230 131 79 73 76 75 59 34 35 46 47 35 19 9 25 32 14 3 40 56 63 56 48 49 61 75 80 81 86 87 83 83 82 81 78 73 68 67 65 65 63 61 58 54 54 59 65 72 79 82 76 67 62
261 268 272 275 283 270 282 283 266 249 241 108 100 94 86 80 65 46 48 41 55 38 21 15 18 22 25 3 39 60 57 51 50 46 41 46 54 65 68 66 64 63 62 60 61 61 60 59 59 58 57 52 48 48 45 43 55 69 73 76 75 73 69
258 264 268 267 266 271 273 283 275 261 245 110 97 90 91 87 72 59 63 44 43 53 33 22 19 18 37 31 28 45 51 54 57 62 59 57 52 52 52 54 55 56 55 56 57 58 58 57 55 53 52 46 42 42 41 44 47 56 60 63 65 62 61